Regional Weather Roundup
Issued by NWS Kansas City/Pleasant Hill, MO

Home | Current Version | Previous Version | Text Only | Print | Product List | Glossary On
Versions: 1 2 3 4 5 6 7 8 9 10 11 12 13 14 15 16 17 18 19 20 21 22 23 24 25 26 27 28 29 30 31 32 33 34 35 36 37 38 39 40 41 42 43 44 45 46 47 48 49 50
000
ASUS43 KEAX 062310
RWREAX

WEATHER ROUNDUP FOR EASTERN KANSAS AND NORTHWEST MISSOURI
NATIONAL WEATHER SERVICE KANSAS CITY/PLEASANT HILL MO
500 PM CST FRI MAR 06 2015

KSZ040-057-103>105-MOZ028-029-037-043-070000-
...KANSAS CITY METROPOLITAN AREA...

CITY           SKY/WX    TMP DP  RH WIND       PRES   REMARKS
K.C. INTL      SUNNY     58  21  24 W12       30.21F
K.C. DOWNTOWN  SUNNY     60  23  24 W8        30.21F
LEES SUMMIT    SUNNY     57  28  33 SW12      30.22F
OLATHE - IXD   SUNNY     58  24  27 SW14      30.23F
OLATHE - OJC   SUNNY     58  23  26 W10G16    30.22F
LAWRENCE       SUNNY     60  20  21 SW15      30.21F

$$

MOZ001>008-011>017-020>025-030>033-038>040-044>046-053-054-070000-
...NORTHERN AND CENTRAL MISSOURI...

CITY           SKY/WX    TMP DP  RH WIND       PRES   REMARKS
ST. JOSEPH     SUNNY     59  20  22 W15       30.19F
MOSBY          CLEAR     57  25  28 SW10G16   30.22S
WARRENSBURG    SUNNY     54  30  40 SW13G18   30.25S
WHITEMAN AFB   SUNNY     53  31  42 SW12G24   30.24F
CLINTON        SUNNY     54  32  43 SW12      30.28F
SEDALIA        SUNNY     53  31  42 SW13G20   30.26F
WARSAW         NOT AVBL
MARSHALL       SUNNY     55  32  41 SW13G18   30.24F
CHILLICOTHE      N/A     58  24  27 SW8       30.21S
MOBERLY        SUNNY     52  27  37 SW13      30.23S
KIRKSVILLE     SUNNY     53  25  33 SW12      30.19F

$$

MOZ041-047>049-056>058-063>065-088>090-097-070000-
...EASTERN AND SOUTHERN MISSOURI...

CITY           SKY/WX    TMP DP  RH WIND       PRES   REMARKS
ST. LOUIS INTL SUNNY     51  23  33 SW8       30.26F
SPIRIT OF STL  SUNNY     50  23  34 S12G17    30.25F
COLUMBIA       SUNNY     52  28  39 W18       30.25R
JEFFERSON CITY SUNNY     56  24  29 W10       30.25S
MEXICO         SUNNY     52  36  54 W9        30.24S
HANNIBAL       SUNNY     48  23  37 SW5       30.23S
ROLLA          SUNNY     50  27  40 SW17G23   30.25F
OSAGE BEACH    SUNNY     55  25  30 SW14G20   30.27F
SPRINGFIELD    SUNNY     50  27  40 SW16      30.32F
BRANSON        SUNNY     50  25  37 CALM      30.36F
NEVADA         SUNNY     52  30  43 S10G18    30.30F
JOPLIN         SUNNY     52  28  39 SW13      30.33F
WEST PLAINS    SUNNY     44  23  43 S9        30.36F

$$

IAZ060-094-KSZ022-034>040-054-083-096-NEZ052-066-093-070000-
...KANSAS...SOUTHEAST NEBRASKA AND IOWA...

CITY           SKY/WX    TMP DP  RH WIND       PRES   REMARKS
TOPEKA         SUNNY     61  18  18 W12       30.20F
MANHATTAN      SUNNY     64  16  15 W10       30.18F
EMPORIA        SUNNY     58  27  30 SW13      30.23F
CHANUTE        SUNNY     58  27  30 SW14      30.28F
WICHITA        SUNNY     61  24  24 SW14      30.25F
OMAHA          MOSUNNY   61  16  17 W13G23    30.10F
LINCOLN        SUNNY     63  13  14 W9        30.13F
FALLS CITY     SUNNY     62  15  16 W15       30.16F
LAMONI         SUNNY     54  26  34 W9        30.14F
DES MOINES     PTSUNNY   52  21  29 SW12      30.10F

$$



USA.gov is the U.S. government's official web portal to all federal, state and local government web resources and services.